Simultaneous Nadir Overpasses (SNOs) Predictions

Prediction of SNOs between GOES-16 and AQUA Satellite Orbit:

Table of predicted SNOs for the next 14.0 days since TLE Epoch: 6/22/2024
Index Date Time (GOES-16) GOES-16 Lat,Lon AQUA Lat,Lon Distance(km) Time Diff (sec)
1 06/23/2024 06:59:50 0.02, -75.21 -0.53, -72.63 293.40 80
2 06/23/2024 19:22:46 -0.02, -75.20 -0.50, -77.54 264.67 80
3 06/25/2024 19:03:28 -0.02, -75.22 0.36, -73.47 198.89 80
4 06/26/2024 07:26:14 0.03, -75.23 0.68, -78.33 353.00 80
5 06/28/2024 07:06:56 0.02, -75.25 -0.22, -74.27 111.88 80
6 06/28/2024 19:29:51 -0.03, -75.24 -0.85, -79.17 445.70 80
7 06/30/2024 19:10:32 -0.02, -75.27 0.04, -75.10 20.18 80
8 07/02/2024 18:53:52 -0.01, -75.30 0.90, -71.02 486.14 80
9 07/03/2024 07:16:37 0.01, -75.31 0.12, -75.89 65.20 80
10 07/05/2024 06:57:18 -0.01, -75.34 -0.78, -71.82 401.64 80
11 07/05/2024 19:20:11 0.01, -75.34 -0.30, -76.71 155.37 80
